Flag for France Weather past 2 weeks in Marigot, Saint Martin, France

Now
81 °F

Passing clouds.


Feels Like: 86 °F
Forecast: 81 / 87 °F
Wind: 7 mph from Southeast

Location: Juliana Airport - Saint Maarten

Current Time: May 30, 2015 at 5:43:33 AM

Latest Report: May 30, 2015 at 5:00 AM


Visibility: N/A

Pressure: 29.95 "Hg

Humidity: 84%

Dew point: 75 °F

Location of MarigotLocation

Historic Weather in Marigot — Graph

°F

Marigot temperature yesterday

Maximum temperature yesterday: 86 °F (at 11:00 AM)
Minimum temperature yesterday: 81 °F (at 12:00 AM)
Average temperature yesterday: 83 °F

Past Weeks' High & Low Weather Summary

 TemperatureHumidityPressure
High86 °F (May 15, 12:00 PM)94% (May 19, 9:00 AM)30.15 "Hg (May 19, 9:00 AM)
Low75 °F (May 16, 12:00 AM)52% (May 18, 12:00 PM)29.92 "Hg (May 27, 4:00 PM)
Average82 °F72%30.03 "Hg
* Reported May 15 4:00 AM — May 30 4:00 AM, Marigot, Weather by CustomWeather, © 2015

Note: Actual official high and low records may vary slightly from our data, if they occured in-between our weather recording intervals... More about our weather records

Advertising

Marigot weather history for previous 24 hours

 ConditionsComfort  
Time TempWeatherWind HumidityBarometerVisibility
4:00 AM
Sat, May 30
81 °FPassing clouds.7 mph84%29.95 "HgN/A
3:00 AM81 °FPassing clouds.8 mph84%29.95 "HgN/A
2:00 AM81 °FLight rain. Passing clouds.6 mph84%29.98 "HgN/A
1:00 AM81 °FPassing clouds.6 mph84%29.98 "HgN/A
12:00 AM82 °FPassing clouds.8 mph74%30.01 "HgN/A
11:00 PM
Fri, May 29
82 °FPassing clouds.8 mph79%30.01 "HgN/A
10:00 PM81 °FPassing clouds.8 mph84%30.01 "HgN/A
9:00 PM81 °FSprinkles. Passing clouds.9 mph84%30.01 "HgN/A
8:00 PM81 °FSprinkles. Passing clouds.9 mph84%29.98 "HgN/A
7:00 PM82 °FPassing clouds.7 mph79%29.98 "HgN/A
6:00 PM82 °FScattered clouds.8 mph79%29.98 "HgN/A
5:00 PM84 °FScattered clouds.8 mph70%29.95 "HgN/A
4:00 PM84 °FScattered clouds.8 mph70%29.95 "HgN/A
3:00 PM84 °FPassing clouds.10 mph70%29.95 "HgN/A
2:00 PM84 °FPassing clouds.10 mph70%29.98 "HgN/A
1:00 PM84 °FScattered clouds.12 mph70%29.98 "HgN/A
12:00 PM84 °FScattered clouds.13 mph74%30.01 "HgN/A
11:00 AM86 °FWarm.10 mph70%30.01 "HgN/A
10:00 AM84 °FScattered clouds.10 mph70%30.01 "HgN/A
9:00 AM84 °FPassing clouds.12 mph70%30.01 "HgN/A
8:00 AM82 °FScattered clouds.10 mph79%29.98 "HgN/A
7:00 AM82 °FPassing clouds.9 mph74%29.98 "HgN/A
6:00 AM81 °FPassing clouds.6 mph79%29.98 "HgN/A
5:00 AM81 °FPassing clouds.6 mph79%29.95 "HgN/A
Weather by CustomWeather, © 2015

See weather overviewHow to use our weather pages